RH
89 91 94 95 95 97 99 100 100 101 100 100 100 100 101 98 83 64 48 36 29 26 27 33 45 55 58 52 42 34 32 32 32 31 30 31 31 32 35 38 39 37 35 36 37 36 39 46 52 54 50 45 43 44 46 42 37 34 33 32 32 32 32 33 31 31 33 34 35 36 31 23 16 12 15 21 30 39 45 47 49 51 56 63 76
94 94 95 95 94 95 98 99 100 101 100 100 101 100 100 100 90 72 55 42 32 28 28 31 39 50 58 60 55 46 38 35 35 33 30 30 31 32 33 36 40 40 39 40 40 39 41 47 54 55 52 48 46 45 47 45 38 34 34 34 34 35 35 35 33 33 36 38 40 43 44 37 27 18 13 13 21 31 40 46 47 48 50 54 62
96 97 96 95 95 96 98 99 100 101 101 100 101 100 100 101 95 79 62 49 37 29 29 31 36 46 56 62 63 59 51 43 39 36 33 32 33 33 32 35 40 44 43 43 42 42 44 48 53 54 53 52 49 46 49 47 40 35 35 36 38 39 41 41 37 36 39 43 44 44 49 49 41 31 20 12 14 22 33 43 47 48 49 50 53
97 99 98 97 97 97 98 99 100 101 101 100 100 100 100 101 98 86 69 56 43 32 30 31 34 43 55 63 67 67 65 57 47 40 37 36 34 34 33 34 41 47 48 47 46 46 48 51 53 54 56 56 53 49 52 52 44 36 35 38 40 43 47 48 45 42 42 47 48 45 46 48 44 37 28 18 12 14 26 39 47 49 51 52 53
98 100 100 100 99 98 98 100 101 101 101 100 100 100 100 100 101 92 76 63 51 38 32 31 33 40 54 65 69 70 71 68 61 53 46 42 38 36 35 37 44 52 54 52 52 51 52 54 56 57 59 60 57 52 54 56 49 40 38 40 43 46 51 53 52 50 48 48 51 50 45 43 41 37 31 25 19 15 18 29 41 49 53 55 56
99 101 100 100 100 100 100 100 101 101 101 100 100 100 100 100 101 96 82 69 59 44 33 31 32 38 51 64 69 71 73 74 73 69 61 53 46 40 38 41 49 59 61 59 57 55 55 57 59 61 62 64 62 56 57 60 56 46 41 43 45 47 52 57 57 56 54 52 53 53 47 41 40 38 35 30 26 23 19 21 31 42 51 56 58
99 100 100 100 100 100 101 101 100 100 100 101 100 100 100 100 101 99 87 74 65 51 35 30 31 33 44 58 68 71 74 77 79 78 73 66 57 48 43 46 57 66 68 64 62 59 58 59 62 64 65 67 66 62 61 64 63 54 45 44 47 48 51 57 61 60 59 58 56 54 49 43 39 38 37 33 29 27 22 18 20 29 42 51 57
100 101 100 100 100 100 101 101 100 100 100 100 100 100 100 100 100 101 92 78 69 58 41 31 29 29 34 50 65 73 75 78 81 82 80 77 68 57 49 52 64 74 73 68 67 64 61 62 67 69 69 69 69 67 66 67 69 63 52 46 47 49 51 56 62 63 63 62 59 55 50 45 41 39 38 36 31 26 24 23 21 23 32 41 49
100 101 100 100 100 100 101 101 100 101 100 100 100 100 100 100 100 101 96 83 73 64 48 35 30 27 28 41 60 73 77 78 81 83 84 83 75 64 57 60 72 80 77 72 71 68 64 65 70 71 69 69 70 70 70 70 72 71 62 52 50 51 52 54 58 62 63 62 60 57 52 47 44 42 40 37 35 31 30 29 25 24 25 28 35
99 100 100 100 100 100 101 101 100 101 101 100 100 100 100 100 100 100 98 88 76 67 55 41 32 27 25 33 53 71 79 80 83 84 86 86 80 69 64 70 82 86 81 76 75 72 68 69 72 72 71 72 73 73 73 72 74 77 72 61 54 53 54 55 56 58 60 59 58 57 54 50 48 46 43 41 38 35 32 29 25 23 24 23 23
100 100 100 100 100 100 100 100 100 100 101 100 100 100 100 100 100 100 99 91 79 70 60 46 35 27 23 27 43 64 78 82 84 86 88 87 83 75 72 80 91 91 85 81 79 78 76 74 73 74 74 76 77 76 75 74 75 80 80 73 61 55 55 57 57 58 58 58 59 59 57 54 52 50 47 44 40 34 28 24 22 23 23 21 17
100 100 100 100 100 100 101 100 100 100 100 101 100 100 100 100 100 100 99 93 82 73 64 51 37 28 22 22 35 56 75 83 85 87 89 90 86 80 78 86 96 96 90 85 82 82 84 81 77 77 78 78 78 79 78 76 76 79 82 79 69 60 56 56 58 60 60 59 59 59 58 56 56 54 50 45 40 34 28 23 23 23 22 21 17
100 100 100 101 100 100 101 100 100 100 100 100 100 100 100 100 100 100 100 95 84 75 66 54 40 29 22 21 29 48 70 82 86 87 90 92 90 85 83 90 100 100 95 89 83 83 88 87 84 84 84 80 80 82 84 83 81 81 83 82 76 67 61 57 56 57 59 59 58 58 58 57 55 53 51 47 41 37 32 29 27 25 24 22 20
100 101 99 100 100 100 101 100 100 100 100 100 100 100 100 100 100 100 100 96 86 77 68 55 42 31 23 21 26 43 67 83 87 88 90 93 94 91 87 93 101 103 100 94 85 83 90 93 92 91 87 83 84 87 89 89 86 83 85 87 85 77 69 63 59 55 53 52 52 54 56 56 54 52 50 46 41 36 32 28 25 23 21 21 20
100 100 100 100 100 100 100 100 100 100 100 100 100 100 100 100 100 100 100 97 89 79 69 56 43 32 24 21 24 41 67 83 87 89 91 95 99 96 92 95 101 103 102 99 89 84 91 97 97 93 89 88 91 92 91 91 89 85 85 88 91 90 82 72 64 60 55 51 48 46 46 45 43 42 40 36 32 28 25 23 21 20 19 18 18
100 100 100 100 100 100 100 100 100 100 100 100 100 101 100 100 100 100 100 98 91 81 69 57 44 33 25 21 25 43 69 84 88 90 93 97 102 101 96 97 101 102 103 101 93 86 90 99 100 98 94 94 96 97 96 94 93 91 90 90 94 98 95 85 74 68 62 57 52 48 44 40 35 32 30 28 26 24 23 22 22 22 21 19 19
100 100 100 100 100 100 100 100 100 100 100 100 101 101 100 100 100 101 101 99 92 82 70 57 45 33 25 23 27 45 71 86 89 92 95 100 103 103 100 99 100 101 102 100 93 89 93 99 102 102 101 100 100 101 101 99 98 98 96 92 92 99 102 96 87 80 74 67 60 54 49 45 40 34 30 27 25 25 24 25 25 26 27 25 23
101 100 100 100 100 100 100 100 100 100 100 100 101 101 100 100 100 101 102 99 93 83 70 57 45 33 26 24 28 47 73 90 93 95 99 102 103 103 102 100 99 100 100 97 93 94 97 101 103 103 103 102 102 101 100 99 99 101 101 93 88 95 103 102 95 91 85 77 71 65 59 53 47 41 35 31 27 25 24 25 26 28 29 29 29
100 100 101 100 100 100 100 100 100 100 100 100 100 100 100 100 100 100 101 100 95 84 69 56 45 33 26 26 31 49 76 93 97 98 102 104 103 102 102 101 99 97 97 97 97 98 100 101 103 103 102 101 102 101 100 99 96 96 99 95 86 89 100 103 99 96 91 83 78 73 68 63 57 50 45 39 34 28 25 24 25 27 29 30 31
100 100 101 100 100 100 100 100 100 100 100 100 100 100 100 100 100 100 101 101 96 84 69 55 44 32 27 29 36 53 78 95 100 100 103 104 102 101 102 100 96 92 93 97 98 99 101 102 102 102 101 100 101 101 101 100 97 93 93 90 84 87 97 103 101 100 97 91 85 79 72 68 64 58 53 48 42 36 30 27 26 26 28 29 30
100 100 101 100 100 100 99 100 100 100 101 100 100 100 100 100 100 100 101 101 96 83 68 54 42 32 28 31 42 58 78 96 102 101 103 104 101 101 101 96 90 89 93 98 100 101 102 102 101 102 103 102 101 102 102 101 101 99 92 85 81 85 94 100 100 100 100 96 91 85 79 73 67 62 58 54 51 48 43 38 33 30 29 30 30
100 100 100 101 101 100 100 100 100 100 101 100 100 101 100 100 101 100 101 102 96 82 67 53 41 32 29 35 47 61 79 96 103 101 101 102 100 101 100 94 91 95 100 102 103 102 102 102 102 104 104 102 101 102 101 97 96 97 93 89 89 90 91 93 95 97 99 98 94 89 83 78 72 66 60 58 59 60 56 51 46 40 35 33 32
101 101 101 101 101 100 100 100 100 100 100 100 100 100 100 100 100 100 101 102 96 81 66 52 40 32 31 39 50 63 80 97 103 100 100 101 100 100 99 97 98 100 100 101 103 103 102 103 104 104 103 102 102 102 99 92 88 89 91 94 97 94 89 88 88 88 91 96 96 91 86 82 78 73 68 67 68 67 62 58 54 49 43 39 36
101 101 101 101 100 100 100 100 100 100 100 101 100 100 100 100 100 100 101 102 95 80 64 52 41 33 34 42 53 66 83 98 103 101 100 101 100 100 100 100 100 100 99 101 103 103 103 105 104 103 103 102 101 100 98 95 93 92 92 93 93 91 91 93 92 89 88 89 90 89 88 86 83 83 85 85 81 74 66 60 57 53 50 47 43
102 101 101 101 100 100 100 100 100 100 100 100 100 100 100 100 100 100 102 102 94 78 63 51 40 34 37 44 54 68 84 97 102 102 101 101 100 100 100 100 101 101 100 100 101 103 105 105 104 103 102 102 101 99 97 97 96 94 92 90 88 88 90 92 94 94 92 88 85 85 88 89 89 93 97 96 91 85 78 72 66 59 53 50 47
101 101 101 101 101 100 100 100 100 100 100 100 100 100 100 100 100 100 101 102 93 76 61 50 39 35 40 46 56 70 84 96 102 103 102 101 100 100 100 101 102 102 100 100 102 103 103 103 101 101 101 101 101 100 97 95 94 93 91 88 84 82 82 83 86 89 90 88 85 83 86 90 96 100 100 94 90 90 89 86 81 73 65 57 52
101 101 102 102 101 100 100 100 100 100 100 100 101 101 100 100 100 100 101 101 91 74 60 48 39 37 42 49 60 72 85 94 100 100 100 98 97 97 97 97 97 98 99 101 103 103 103 102 101 101 100 98 96 95 94 93 92 91 89 86 82 78 76 76 79 82 85 86 87 86 87 91 97 100 98 92 90 91 93 93 91 88 83 75 66
99 100 102 102 101 100 100 100 100 100 100 100 101 100 100 100 100 100 101 100 89 73 58 47 40 39 43 50 61 73 85 92 93 91 92 94 95 96 97 97 99 100 101 103 103 103 102 100 98 96 95 93 92 90 89 89 87 86 84 82 78 76 73 73 77 81 83 85 87 88 90 93 97 100 99 96 94 93 93 93 93 94 93 88 82
96 99 101 102 101 100 100 100 100 100 100 100 100 100 100 100 100 100 101 98 87 71 58 47 42 42 48 54 62 75 86 89 86 85 89 94 96 97 98 99 100 99 99 100 99 97 95 93 92 92 92 91 91 89 87 85 84 83 83 81 78 76 75 77 80 83 84 86 87 90 93 94 96 99 101 99 97 96 95 94 95 97 95 92 89
95 98 100 101 101 101 100 99 100 100 100 100 101 100 100 100 100 100 101 97 85 69 57 48 44 47 53 59 64 74 82 83 81 86 93 96 96 96 94 94 93 93 93 95 95 93 92 92 90 90 89 89 88 87 86 86 85 85 87 87 86 84 83 85 87 87 86 87 88 91 96 96 94 96 99 100 100 100 99 98 99 98 95 91 89
95 97 100 101 102 101 99 98 99 100 100 100 100 100 100 100 100 101 101 96 83 68 55 48 45 48 55 61 67 74 79 80 82 87 90 92 93 92 90 92 94 93 92 93 93 92 91 90 89 89 88 89 89 90 91 92 92 93 94 95 95 94 92 92 92 91 90 89 90 94 98 98 96 95 95 96 99 102 103 102 101 98 93 89 88
97 98 100 101 101 100 98 97 99 100 100 101 101 100 100 100 100 101 101 95 82 68 56 48 46 49 55 61 69 76 79 82 86 87 87 89 91 90 91 96 99 96 93 92 93 93 93 94 95 97 97 96 97 98 98 99 99 99 98 100 101 101 100 99 99 97 94 93 94 98 100 101 99 97 95 94 96 99 102 103 102 100 97 92 88
100 101 102 100 101 101 98 96 99 101 100 100 101 100 100 100 100 100 100 94 82 69 57 48 47 52 54 58 68 78 83 84 86 87 89 91 91 91 96 101 101 96 94 93 93 96 99 101 101 103 104 102 100 99 99 100 101 100 99 100 102 103 102 102 102 102 101 99 99 101 102 102 101 99 97 96 95 95 98 101 102 103 103 98 93
101 102 103 101 101 101 97 95 98 101 100 100 100 99 99 100 100 101 100 94 82 69 57 49 48 51 54 58 66 77 84 87 87 89 93 94 93 94 100 104 101 96 93 94 97 100 104 103 102 103 105 103 99 97 97 98 100 100 100 100 101 102 102 102 102 102 103 103 103 103 103 102 101 99 97 96 95 95 96 97 99 101 101 100 97
99 100 101 101 101 100 97 95 98 100 101 101 101 100 100 100 100 101 101 95 83 68 56 49 48 50 53 59 64 71 82 89 91 92 93 94 95 98 102 103 101 96 94 96 100 103 104 105 104 104 104 102 99 98 98 98 99 100 101 100 100 100 100 101 101 101 102 102 102 103 103 102 100 99 97 96 96 96 96 97 98 98 97 97 96
96 98 99 100 101 101 97 96 98 100 101 101 100 100 100 100 100 101 101 96 84 69 55 47 46 46 50 54 56 63 78 91 95 93 93 93 96 101 103 102 101 98 96 98 101 102 103 104 104 105 104 102 100 98 98 98 98 100 101 101 100 99 99 99 99 99 99 100 101 101 102 101 99 98 98 99 100 100 98 99 100 99 98 98 97
92 96 96 97 100 101 99 98 100 100 100 101 101 101 100 100 100 102 101 96 84 69 54 45 41 41 45 49 51 57 72 88 95 95 93 92 95 100 102 103 102 100 99 100 102 103 104 104 104 104 104 103 101 99 98 99 100 102 103 103 102 102 101 100 99 98 97 97 97 97 98 99 98 98 98 100 102 103 101 100 101 101 101 101 99
91 93 94 96 100 101 100 100 100 100 100 101 101 100 100 100 100 101 102 96 84 68 54 44 39 37 39 44 48 53 65 80 90 93 93 94 95 98 101 102 103 102 102 102 102 102 103 104 103 104 104 103 103 102 100 100 101 103 104 105 105 105 104 102 102 101 99 97 96 95 94 95 97 98 99 100 102 103 102 101 101 101 101 101 100
92 92 93 96 100 102 101 100 100 100 100 100 100 100 100 100 100 101 102 97 84 69 56 46 42 38 36 38 42 47 55 69 81 90 94 95 96 97 99 101 102 103 103 104 104 104 104 103 103 103 104 103 104 103 101 100 101 102 104 105 105 105 104 103 102 101 99 98 97 95 94 95 95 97 99 101 102 102 102 101 101 101 100 100 99
92 93 93 97 101 102 102 100 100 101 101 100 101 100 100 100 100 101 102 98 85 72 60 51 45 41 37 36 37 39 45 56 71 85 95 98 98 99 99 100 101 102 102 103 104 104 103 103 103 104 105 104 104 103 102 101 101 101 102 103 103 103 103 102 100 99 98 97 97 96 96 96 97 98 99 101 102 103 103 102 102 102 101 100 100
92 95 95 99 102 103 102 100 100 100 101 101 101 100 100 100 100 101 102 98 86 73 63 55 49 44 39 36 34 34 36 44 58 73 87 94 98 100 100 101 102 103 103 103 103 103 103 103 104 105 105 104 103 103 102 101 101 100 99 99 100 101 101 101 101 100 98 97 97 97 97 97 99 101 102 103 104 105 104 103 103 102 101 101 100
94 99 98 101 103 102 101 101 100 100 100 100 100 100 100 100 100 101 102 98 87 76 67 59 52 46 41 36 33 32 33 37 46 58 72 84 92 97 101 103 103 103 103 103 102 101 100 101 102 103 105 104 104 103 103 102 101 101 100 99 99 99 100 101 101 101 100 99 99 99 99 100 100 101 103 104 105 106 106 104 104 103 102 100 100
97 104 103 102 102 100 100 100 100 100 101 100 100 100 100 100 100 102 103 99 90 79 71 62 54 48 43 38 35 33 31 33 37 45 56 68 79 86 93 99 101 101 100 99 98 96 95 93 93 95 98 100 102 104 104 104 102 101 100 100 100 100 101 102 103 103 102 101 101 101 102 103 103 103 104 104 104 105 106 105 105 105 104 102 100
98 103 103 102 101 100 100 100 100 100 101 100 100 100 100 100 100 101 103 101 94 83 73 65 57 51 46 42 38 35 32 31 31 33 39 46 55 63 73 82 90 95 97 97 97 96 94 92 90 89 89 91 94 96 99 100 101 102 101 101 101 101 102 103 105 106 105 104 104 103 102 102 103 104 106 106 104 104 105 106 105 105 106 105 103
99 100 101 101 100 100 100 100 100 100 100 100 100 100 100 100 100 101 102 102 96 86 77 68 61 55 51 46 41 38 35 32 31 29 29 30 34 38 44 51 60 70 77 83 88 91 93 95 95 94 92 90 90 90 90 91 92 94 97 99 101 102 103 104 104 105 106 106 106 105 105 104 103 103 105 107 106 105 105 106 106 105 105 105 104
99 99 100 100 100 100 101 100 100 100 100 100 100 100 100 100 100 100 102 103 99 91 82 74 67 61 55 50 45 42 38 36 33 31 29 28 27 27 28 29 32 38 45 53 62 70 78 87 93 98 100 99 97 95 93 91 90 89 89 90 93 95 98 101 103 104 105 105 106 106 106 106 104 103 105 107 107 106 105 104 105 105 106 106 105
100 100 100 100 100 100 101 100 100 101 100 100 100 100 100 100 100 100 101 103 101 96 89 81 73 66 60 54 50 46 42 39 37 34 32 31 29 27 26 25 24 25 27 32 37 43 50 59 69 78 86 92 96 98 98 97 97 96 93 90 88 88 89 93 96 100 102 103 104 105 106 106 106 104 104 104 106 106 106 105 104 104 105 106 106
100 100 100 100 100 100 100 100 101 101 100 100 101 100 100 100 100 100 100 102 103 100 95 88 81 73 65 59 55 50 47 44 41 38 36 34 32 31 29 28 26 25 25 25 26 27 29 32 36 42 49 58 67 75 82 87 93 97 98 96 94 91 88 86 87 90 94 98 101 103 105 105 106 105 105 105 106 106 106 106 106 105 104 105 105
100 100 100 100 100 100 100 100 100 100 100 100 101 101 101 101 101 100 100 101 102 101 98 94 88 80 72 65 60 56 52 48 44 42 40 37 35 34 32 31 30 29 28 27 26 26 25 25 25 26 27 29 33 38 45 52 61 71 79 86 91 94 94 92 89 86 85 87 91 97 101 104 105 105 105 105 105 105 105 104 104 104 104 104 104
100 100 100 100 100 100 100 100 100 100 100 100 101 102 103 103 102 101 101 101 101 102 101 98 94 88 80 73 67 62 58 54 50 47 44 42 40 38 37 35 34 33 31 31 30 29 28 28 27 27 26 26 26 25 25 27 29 34 40 49 58 68 77 84 88 90 88 86 84 86 89 94 99 103 105 104 103 102 102 102 102 102 101 101 101
100 100 100 100 100 100 100 101 100 100 100 100 100 102 103 103 102 101 100 100 101 102 102 102 100 96 90 83 76 70 65 61 57 53 50 47 45 43 42 41 39 37 36 35 35 34 33 32 31 30 30 29 28 27 26 25 24 23 23 24 27 32 38 46 56 67 76 82 84 84 83 83 86 90 96 101 103 103 102 101 100 100 100 100 100
Wind_Speed
46 47 46 45 46 46 45 44 43 43 42 44 45 45 43 39 36 35 35 33 32 32 33 34 36 38 38 39 39 39 39 39 39 38 37 36 35 34 33 32 30 29 29 29 29 29 28 29 29 29 30 30 30 31 31 31 31 31 30 30 32 35 40 44 49 54 53 50 47 45 46 48 51 54 57 57 55 55 56 57 59 59 59 61 64
44 46 47 47 47 47 45 44 43 42 42 43 44 45 44 40 37 35 34 34 33 32 32 33 35 36 37 38 38 39 38 38 39 39 38 37 36 35 34 33 31 29 29 29 29 29 29 29 29 29 29 29 29 30 31 31 31 31 31 31 31 33 37 42 47 52 54 53 49 45 44 45 47 49 53 57 57 55 55 56 58 59 60 60 61
43 44 45 46 46 46 46 43 42 41 41 42 44 44 44 41 37 35 34 34 33 32 32 32 33 34 35 37 37 38 38 38 38 38 38 37 36 35 34 33 31 30 29 30 29 28 28 29 29 29 29 28 28 29 30 30 30 30 31 31 31 32 34 39 45 50 53 54 51 48 45 45 46 47 49 53 55 55 54 55 57 58 59 59 59
42 42 44 45 45 45 44 42 41 41 41 42 43 44 43 41 38 35 34 34 33 32 32 31 32 33 34 35 36 37 37 37 37 37 37 37 36 36 34 33 31 30 29 30 29 28 28 28 29 29 28 28 27 28 29 29 29 30 30 30 31 31 32 36 41 47 50 53 53 51 48 47 47 47 48 49 52 53 53 53 55 57 58 59 58
42 41 43 44 45 44 42 40 39 40 41 41 42 43 43 41 39 36 34 34 33 32 31 31 31 31 32 33 35 36 36 36 36 36 36 36 36 35 34 33 31 29 29 30 29 28 27 27 28 28 28 27 27 27 27 28 28 28 29 28 29 29 30 33 38 43 47 51 52 52 50 49 48 47 46 46 47 50 52 52 53 55 57 58 58
41 41 41 43 44 43 41 38 38 40 41 40 41 42 42 41 40 37 35 34 33 32 31 30 30 30 31 32 34 35 35 35 34 34 35 35 35 34 33 33 30 28 29 30 29 27 26 25 26 26 26 26 25 25 26 26 27 27 27 26 26 27 28 30 34 40 44 48 50 52 51 49 48 47 45 44 44 45 48 50 51 53 54 56 57
40 39 40 41 42 42 40 37 37 39 40 39 39 41 41 41 40 38 36 35 33 31 30 29 29 29 29 30 32 33 34 33 33 33 34 34 34 33 33 32 29 28 29 30 28 26 25 24 24 24 24 23 23 24 24 25 25 25 25 24 24 25 25 27 30 36 41 45 47 49 50 48 46 45 44 43 43 43 44 46 49 51 53 54 56
39 38 39 39 40 41 39 37 37 38 39 38 38 40 41 40 39 37 37 35 33 31 30 29 29 29 29 29 30 31 32 33 32 32 33 33 32 32 32 31 28 27 29 29 27 25 24 22 22 22 22 22 21 22 23 23 23 23 23 23 22 22 22 23 27 31 36 40 43 45 46 44 42 42 41 41 42 41 41 43 45 48 50 53 54
40 39 38 38 39 40 39 38 37 38 38 37 37 39 39 39 38 37 37 35 33 31 30 29 28 28 29 29 29 30 31 32 32 32 32 32 31 31 31 29 27 27 28 28 26 24 22 21 21 22 22 21 20 20 21 21 21 21 21 21 20 20 20 20 23 28 32 36 38 39 40 39 37 37 38 38 38 38 38 40 42 44 47 50 53
41 40 38 38 39 40 39 38 36 36 37 36 36 37 38 38 38 37 36 35 33 32 30 28 27 27 28 29 29 29 30 30 31 31 31 31 31 30 30 28 25 27 28 27 24 22 22 21 20 20 21 20 19 19 19 19 19 19 20 20 19 18 18 18 20 23 28 32 33 35 35 35 33 33 34 34 34 35 36 37 38 40 43 48 51
43 41 39 38 39 39 39 37 35 35 37 36 35 36 37 37 36 36 36 35 33 32 30 28 27 27 27 28 28 29 28 29 30 31 30 30 30 29 29 26 25 26 28 26 23 21 21 21 19 19 19 19 18 18 18 18 17 17 17 18 18 18 17 16 17 20 24 27 29 30 31 31 30 29 30 31 32 33 34 34 35 36 39 44 48
44 42 40 39 40 40 38 35 34 35 36 35 35 35 35 35 35 36 36 34 33 31 29 27 26 27 27 27 28 28 28 28 29 30 30 29 29 29 27 26 25 26 28 25 22 20 20 20 18 17 18 18 17 17 16 16 17 16 16 16 16 16 16 16 16 18 21 23 25 27 28 28 27 27 29 30 31 32 32 32 33 34 36 39 43
44 41 40 39 40 39 37 34 33 34 35 35 34 33 33 34 35 35 35 34 33 31 29 27 26 26 26 26 27 28 28 28 29 29 29 29 29 28 27 25 25 27 27 25 22 19 18 19 18 17 17 17 15 15 15 15 15 16 16 15 14 14 15 15 16 17 19 21 23 24 25 26 26 26 26 28 29 30 31 31 32 33 33 35 37
43 41 40 39 39 38 36 33 32 34 35 34 33 32 32 33 34 34 34 33 32 30 29 27 26 26 26 26 27 27 27 27 28 28 28 28 29 28 26 25 25 27 27 25 22 18 16 17 18 18 17 15 13 13 14 13 14 14 14 13 13 12 13 14 15 16 18 19 20 21 22 24 24 24 25 27 29 30 31 31 31 32 32 33 34
43 41 41 40 39 38 36 33 32 34 35 33 31 30 30 32 33 34 34 32 31 30 28 27 26 26 26 25 26 26 26 27 28 27 27 28 29 28 27 25 26 27 27 25 23 19 16 17 19 18 16 14 12 13 14 13 13 12 12 12 11 10 11 12 14 16 18 19 19 19 20 22 23 24 25 27 29 29 30 30 30 30 31 32 33
42 42 41 40 40 39 37 35 34 36 35 31 28 28 29 31 32 33 33 32 30 29 27 26 26 25 25 25 24 25 26 27 27 27 27 27 29 28 27 26 27 27 27 26 24 20 17 17 18 17 15 14 14 14 15 14 13 12 12 11 9 8 9 11 12 14 16 18 19 19 20 22 22 23 24 26 27 27 27 27 27 27 29 30 31
42 42 42 41 41 40 40 39 38 37 33 28 26 27 28 30 31 32 33 31 29 28 26 25 25 25 24 24 24 24 25 26 26 26 26 27 28 28 27 27 27 28 28 26 23 20 18 18 18 17 16 15 15 16 17 16 15 13 13 12 9 7 9 11 11 11 13 16 19 20 21 22 22 23 24 25 25 26 26 26 25 25 26 27 28
42 42 42 42 42 42 42 42 41 37 31 26 25 26 27 28 30 31 32 31 29 27 25 25 24 24 24 24 23 23 24 25 25 25 26 27 28 28 28 27 28 29 28 26 22 20 20 20 20 19 18 17 17 18 19 19 17 16 16 15 11 7 8 11 12 12 13 15 17 19 20 21 23 23 24 25 26 26 27 27 26 26 26 26 26
42 42 42 43 43 43 42 42 41 37 30 25 25 25 25 27 29 30 30 30 28 26 25 24 23 23 23 23 22 22 23 24 25 24 25 27 27 28 27 27 29 29 27 25 22 21 21 21 22 22 20 19 19 19 20 21 21 19 18 18 14 9 10 13 14 14 15 15 16 17 18 20 21 23 24 25 26 27 28 28 27 28 28 27 26
43 41 42 43 44 43 42 41 40 36 30 26 24 24 24 26 28 29 29 29 27 26 25 23 23 22 22 22 22 22 22 24 24 24 25 25 26 26 27 28 30 29 26 23 22 22 22 23 24 24 22 21 20 20 20 21 22 22 22 20 16 11 12 15 14 14 16 16 16 16 17 19 20 22 23 24 25 27 28 29 29 29 30 29 28
45 42 42 43 44 44 42 40 38 35 30 27 24 23 23 25 27 28 28 27 26 25 24 23 22 22 21 21 21 21 21 23 23 23 24 24 25 25 27 29 29 26 23 23 23 23 23 24 24 24 23 22 21 21 21 21 22 24 25 23 18 14 15 16 16 16 18 18 18 17 16 17 19 21 22 23 24 24 26 27 28 29 30 30 30
47 44 43 44 44 44 42 39 37 34 31 27 24 21 22 24 26 27 27 26 25 24 23 22 21 21 21 20 20 21 21 21 22 22 23 23 24 26 28 29 26 24 23 23 23 23 23 23 24 24 23 23 22 23 23 23 24 25 26 25 22 21 20 19 19 20 21 21 20 19 17 17 18 19 20 20 20 21 23 25 27 28 29 30 30
48 45 44 44 44 43 42 39 35 32 30 27 23 20 21 23 25 26 26 25 24 23 23 21 20 20 20 20 20 20 20 20 21 22 22 23 24 25 27 26 24 23 23 22 22 22 22 22 23 23 23 24 24 25 25 25 25 24 24 25 26 26 24 22 22 22 23 23 23 22 19 17 17 16 16 15 16 19 22 24 26 28 29 29 29
48 46 44 43 43 42 40 37 33 30 29 27 23 20 20 22 24 25 24 23 23 23 22 20 19 19 19 19 19 19 19 19 21 22 22 23 24 24 25 25 24 24 23 21 20 20 21 21 22 23 24 25 25 25 25 25 26 25 25 25 26 26 26 26 25 24 24 24 25 24 22 20 18 15 13 13 15 19 23 24 25 26 26 26 27
48 46 44 42 41 40 38 35 31 27 26 26 23 20 19 21 23 23 23 22 22 22 20 19 18 18 18 18 18 18 18 19 21 22 23 24 24 25 25 24 24 23 22 21 20 20 20 21 22 23 24 25 25 25 25 26 27 27 26 26 26 26 26 27 27 27 27 26 25 24 22 21 19 17 17 18 19 20 21 22 23 24 24 24 25
46 45 42 41 39 37 34 31 28 25 25 25 22 19 18 20 22 22 22 21 21 20 19 18 17 17 17 17 17 17 18 19 20 22 23 25 25 25 25 24 23 23 22 22 21 21 22 22 23 24 25 26 26 26 26 26 27 28 27 27 27 27 27 28 28 29 29 27 25 23 21 20 20 21 22 23 22 20 20 21 21 22 22 22 23
44 43 41 39 37 34 30 27 25 23 24 24 21 18 18 19 21 21 21 20 20 19 18 17 16 16 16 16 16 16 17 18 20 22 23 24 24 24 24 24 24 23 23 23 23 22 22 23 24 25 26 27 27 26 26 27 27 28 28 28 28 28 28 28 28 29 29 27 25 23 20 19 21 24 25 25 23 21 21 21 22 21 21 21 21
43 41 39 38 36 32 28 24 22 21 22 23 20 18 18 19 20 20 20 19 18 18 17 16 15 15 15 15 15 16 16 18 19 21 21 21 21 22 22 22 22 22 22 23 23 22 22 23 24 25 26 26 26 26 26 26 27 27 28 28 28 28 28 28 28 28 28 27 25 23 21 20 21 23 25 26 25 23 22 22 22 21 21 22 22
43 41 39 37 35 31 26 22 20 20 21 22 20 18 17 18 19 19 19 18 17 17 16 16 15 14 14 14 15 15 16 18 19 19 19 19 20 20 20 19 19 19 19 20 21 21 21 22 23 23 24 25 25 25 25 25 26 26 27 27 27 27 27 27 27 27 27 27 25 23 21 21 21 21 24 26 26 25 24 23 22 22 23 23 22
42 39 38 36 34 30 25 20 18 19 21 21 20 17 17 17 18 18 17 16 16 16 16 15 15 14 14 14 14 15 17 18 18 17 18 19 19 18 17 17 16 16 17 17 18 18 19 20 20 21 22 23 24 24 24 24 24 25 25 25 25 26 26 26 26 26 27 26 25 23 22 22 21 21 22 24 24 25 25 24 24 24 25 24 22
42 38 37 35 32 29 23 18 17 19 20 21 19 17 16 17 17 17 16 15 15 15 15 15 14 13 14 14 14 15 16 17 17 17 18 18 18 17 15 14 14 15 15 15 15 16 17 18 18 19 20 20 21 21 21 21 21 22 22 23 23 24 25 25 25 25 26 26 25 24 23 23 22 21 21 21 22 24 25 26 26 26 26 24 23
41 38 36 33 30 26 21 16 16 17 19 20 18 16 16 17 17 16 15 14 14 14 14 14 14 14 14 14 14 14 15 15 16 17 18 17 17 16 13 12 13 15 15 14 14 15 16 16 16 16 16 17 17 18 18 18 18 19 19 20 21 22 23 23 23 24 25 25 25 25 25 24 24 23 22 21 21 22 24 26 27 28 27 26 25
40 38 35 32 28 24 18 14 14 16 19 20 19 17 16 16 17 16 15 13 13 14 14 14 14 14 14 14 14 14 15 15 16 17 17 17 17 14 12 11 13 14 14 14 14 14 14 14 14 14 15 15 15 15 16 15 15 16 17 18 19 20 21 21 22 22 23 24 24 25 25 25 25 24 24 23 22 22 22 24 26 27 28 28 27
39 37 34 30 26 22 17 13 13 16 19 20 19 17 16 16 16 15 14 13 13 13 14 14 14 14 15 15 14 14 15 15 15 16 17 17 16 14 11 12 13 13 13 13 13 13 13 14 13 13 13 14 14 14 14 14 14 14 14 15 16 18 19 20 20 21 22 23 24 24 25 25 25 25 25 25 24 24 23 24 25 26 27 28 27
37 36 33 29 24 20 15 11 12 16 19 19 18 17 16 16 16 15 14 13 13 13 14 14 14 15 15 15 15 15 14 14 15 16 17 17 16 14 12 13 13 12 12 11 11 11 12 13 13 13 12 12 13 13 13 13 13 12 12 13 14 15 16 17 18 20 21 21 22 22 23 23 24 24 24 24 24 24 24 24 24 25 25 25 25
37 35 31 27 22 19 14 11 12 16 19 20 19 17 16 15 15 14 14 13 13 13 13 14 14 15 15 15 15 14 14 14 15 16 17 17 15 14 13 13 12 12 11 11 10 11 11 11 12 12 11 11 12 12 13 13 13 13 13 13 13 13 14 15 16 17 18 18 19 19 20 21 21 22 22 23 23 23 23 23 23 24 24 24 24
38 35 31 26 21 17 13 11 13 17 19 20 18 16 15 14 14 14 14 13 13 13 13 13 14 14 15 15 15 14 14 14 15 16 16 16 15 14 14 13 12 11 11 11 10 11 11 11 11 11 11 12 12 12 12 13 13 13 14 14 14 14 14 14 15 15 16 16 16 17 17 18 19 19 20 21 21 22 22 22 23 23 24 24 23
38 35 31 24 19 15 12 11 13 17 19 19 17 15 14 14 15 14 14 13 13 13 13 13 14 14 14 15 15 15 14 15 15 16 16 15 15 15 14 13 13 12 11 11 11 11 10 10 10 11 11 12 12 12 13 13 13 14 14 15 15 15 15 15 15 15 15 15 15 15 16 16 17 17 18 19 20 21 21 22 22 23 23 24 23
37 34 29 23 18 14 11 11 13 16 18 17 16 15 14 14 14 14 14 14 13 13 13 13 13 14 14 14 14 15 14 15 15 15 15 15 15 15 15 14 14 13 12 11 11 11 10 10 10 11 12 12 13 13 13 14 14 14 15 15 15 16 16 16 16 16 16 16 15 15 15 15 16 16 17 18 19 20 21 22 23 23 24 25 24
37 33 27 21 16 13 10 11 14 16 17 16 15 14 14 14 15 15 14 13 13 13 13 13 13 13 13 14 14 14 14 15 15 15 15 15 15 15 15 15 14 14 13 13 12 11 11 11 11 11 12 13 13 13 13 14 14 14 15 15 15 16 16 16 16 16 16 16 16 16 15 15 16 16 16 17 18 19 20 22 23 24 25 26 26
38 32 25 19 14 11 10 12 14 16 16 16 15 14 14 15 15 15 14 13 14 14 13 13 13 13 13 13 13 14 14 14 15 15 15 15 15 15 15 15 15 14 14 14 13 13 12 12 12 12 13 13 13 13 13 13 13 13 13 14 14 15 16 16 16 16 16 16 16 16 16 16 16 16 16 17 17 18 20 21 22 23 25 26 28
36 31 24 17 12 9 10 12 15 16 17 16 16 15 14 15 15 14 14 14 14 14 14 13 13 13 12 13 13 13 13 14 14 15 15 15 15 15 15 15 15 15 15 14 14 14 13 13 13 13 13 12 12 12 12 12 12 12 12 12 13 13 14 15 15 15 15 15 15 16 16 16 15 15 15 16 17 18 19 21 22 23 24 25 27
35 29 23 16 11 9 10 12 15 17 17 16 15 14 14 14 14 14 14 14 14 14 14 14 13 12 12 13 13 13 12 13 14 15 15 15 15 15 15 15 15 15 15 15 14 14 13 13 12 12 12 12 12 12 12 12 12 12 11 11 12 12 12 13 13 14 14 14 15 15 15 15 15 15 15 16 17 18 19 20 21 22 23 24 25
33 27 21 15 11 10 12 13 15 16 16 15 14 13 13 13 14 14 14 14 14 14 14 14 13 13 12 13 13 13 12 12 13 14 14 15 15 15 15 16 16 16 15 15 14 14 13 12 12 11 11 11 12 12 12 12 12 12 12 11 11 11 12 12 12 13 13 13 14 14 14 15 15 15 15 16 17 17 18 19 20 21 22 23 24
30 25 20 14 11 12 13 14 15 16 16 15 14 13 13 14 15 15 15 15 15 15 15 14 14 13 13 13 13 13 13 13 13 13 13 14 14 14 14 15 15 15 15 15 15 14 14 13 12 12 12 12 12 12 12 12 12 12 12 12 12 12 12 12 12 13 13 13 13 14 14 15 15 15 15 16 16 17 17 18 20 21 21 22 23
27 23 19 15 13 13 14 15 16 16 16 15 14 14 14 15 15 15 15 15 15 15 15 15 14 14 14 14 14 14 13 13 13 13 13 13 13 13 13 13 13 13 13 13 14 14 14 14 13 13 13 13 13 13 13 13 13 13 13 12 12 12 12 12 12 13 13 13 13 14 14 15 15 16 16 16 16 17 17 17 18 19 21 22 23
24 21 18 15 14 14 15 16 16 17 16 15 14 14 15 15 15 15 15 15 15 15 15 15 15 15 15 15 14 14 14 14 14 13 13 13 13 13 12 12 12 12 12 12 12 13 13 13 13 13 14 14 14 14 14 14 13 13 13 13 13 13 13 13 13 13 13 14 14 14 14 15 15 16 16 17 17 17 17 18 18 18 19 20 21
23 20 18 15 15 15 16 16 16 17 17 16 15 15 15 15 16 16 16 16 16 16 16 16 16 16 15 15 15 15 15 14 14 14 14 13 13 13 13 13 12 12 12 12 12 12 12 12 12 13 13 13 14 14 14 14 14 14 14 14 14 14 14 14 14 14 14 14 14 15 15 15 15 16 16 16 17 17 17 18 18 18 19 19 20
21 20 18 15 14 15 16 17 17 17 17 17 16 16 16 17 17 17 17 17 16 16 16 16 16 16 16 16 16 16 15 15 15 15 14 14 14 13 13 13 13 13 13 12 12 12 12 12 12 12 12 12 12 13 13 13 14 14 15 15 15 15 15 15 15 15 15 15 15 15 15 16 16 16 16 16 16 17 17 17 18 18 19 19 19
22 21 20 17 15 15 16 17 18 18 18 18 17 17 17 17 17 17 17 17 17 17 17 17 16 16 16 16 16 16 16 16 16 15 15 15 14 14 14 14 14 13 13 13 13 13 12 12 12 12 12 11 12 12 12 12 12 13 13 14 14 15 15 15 15 15 15 15 15 15 16 16 16 17 17 17 17 17 17 17 17 17 18 18 19
24 23 22 20 18 18 18 18 19 19 19 18 18 17 17 17 17 17 17 17 17 17 17 16 16 17 17 17 17 17 17 17 16 16 16 16 16 15 15 15 15 14 14 14 13 13 13 13 12 12 12 12 12 11 11 11 11 11 11 12 12 13 14 14 15 15 15 16 16 16 16 16 17 17 17 18 18 18 18 17 17 17 17 17 17
Wind_Direction
299 297 294 293 293 295 298 302 306 308 309 309 308 304 299 295 293 291 290 288 284 279 275 272 268 265 264 263 263 262 261 261 263 264 266 267 268 269 271 273 276 279 281 281 283 284 286 287 287 288 289 290 290 291 291 289 286 283 279 272 264 256 251 248 248 248 247 243 238 234 231 230 229 231 233 235 235 233 233 233 233 234 235 234 234
303 299 297 296 295 295 296 299 304 306 306 307 308 305 300 295 292 290 289 288 285 281 277 273 270 266 263 262 262 262 261 261 261 262 264 265 267 268 269 270 273 275 277 278 280 282 285 285 285 285 288 290 290 290 291 291 287 285 283 279 270 260 252 247 245 245 246 244 239 233 230 229 229 228 230 233 234 234 232 232 233 234 236 236 235
307 303 301 300 298 296 296 298 301 304 305 305 306 305 302 296 291 289 288 287 285 282 279 275 272 268 265 262 262 261 261 260 260 260 262 264 265 266 267 268 270 273 274 275 277 280 283 284 284 285 287 290 290 290 292 292 289 286 286 283 277 267 255 248 244 242 243 244 240 234 229 227 228 227 227 229 232 234 233 232 232 234 236 237 236
308 306 303 301 299 298 297 298 300 302 302 302 305 306 303 298 291 288 287 286 285 283 280 277 274 271 267 263 261 261 260 259 258 259 260 262 263 264 264 265 267 270 271 272 275 278 281 283 284 286 289 290 289 291 293 293 290 288 287 286 282 274 262 251 244 241 240 241 241 237 231 227 228 228 228 228 229 232 233 232 231 233 235 237 238
310 308 305 302 301 299 297 297 299 300 299 300 304 306 304 299 292 288 286 285 285 284 281 279 276 273 269 264 261 260 259 259 258 258 259 260 261 262 262 263 264 267 268 270 272 276 279 281 282 284 288 289 289 290 293 295 292 289 289 288 285 278 268 255 246 241 238 238 239 238 234 230 229 231 231 231 229 229 232 233 232 232 233 236 238
313 312 308 305 303 301 298 297 298 298 297 298 302 305 305 300 293 288 286 285 284 284 282 280 278 275 271 265 261 260 259 259 258 258 257 258 259 259 260 261 262 264 266 268 270 274 278 279 280 282 286 288 289 290 293 296 294 290 290 290 287 280 271 260 249 242 238 235 236 237 236 232 230 231 232 233 232 230 230 232 233 233 234 235 237
315 315 313 310 308 304 300 297 296 296 296 297 300 304 304 300 294 289 286 284 285 285 283 281 279 276 273 268 263 261 260 259 258 257 256 256 256 256 257 258 260 262 264 266 269 274 277 279 279 282 287 289 289 289 292 295 295 292 289 289 287 281 273 263 252 243 238 236 234 236 237 234 231 231 232 233 234 234 232 232 232 233 235 235 237
317 316 316 315 312 306 300 296 295 294 294 295 299 303 304 301 294 288 284 284 285 284 283 282 280 278 275 271 266 262 260 259 258 257 255 254 254 254 255 256 258 259 262 265 269 273 276 278 280 282 285 288 289 288 290 293 295 294 290 287 286 282 275 265 254 245 239 237 235 235 237 236 232 232 234 235 236 237 237 235 233 233 234 235 236
317 316 315 315 312 306 300 296 294 294 293 294 297 302 303 301 295 288 284 283 283 283 283 282 282 280 276 273 269 263 259 259 257 256 254 253 253 252 253 254 255 257 260 263 267 273 276 277 280 281 284 288 290 287 287 291 295 296 292 287 285 282 275 264 254 246 240 237 235 235 235 235 232 232 234 237 239 240 240 239 236 234 234 235 236
316 314 314 312 309 304 300 296 293 293 293 292 295 300 302 300 295 288 284 282 282 282 283 283 283 281 277 273 270 264 259 257 256 254 252 251 251 251 251 251 252 255 259 262 266 271 275 278 280 283 287 291 291 286 285 287 292 297 295 290 284 279 273 263 253 246 241 237 235 234 233 232 231 231 233 236 239 241 241 241 240 238 236 235 235
314 312 311 309 307 303 299 295 292 292 291 290 292 297 300 300 295 288 283 281 281 282 283 284 284 282 277 273 270 265 260 256 254 253 251 250 250 249 248 248 249 253 257 260 264 268 274 279 282 286 290 291 287 282 281 284 288 294 297 293 286 278 271 262 252 244 241 239 236 234 233 232 231 232 233 234 236 238 240 241 241 240 238 237 236
313 311 309 308 306 302 298 294 291 291 290 289 290 294 298 299 294 287 283 280 280 282 283 284 284 283 279 273 269 266 261 256 253 252 251 250 248 247 246 245 247 251 255 258 260 263 269 276 281 285 286 284 280 277 279 283 287 291 294 293 288 279 271 262 252 243 239 238 236 234 234 233 232 231 232 234 236 238 238 239 240 240 240 239 238
313 310 309 308 307 302 297 292 289 289 289 288 288 292 298 299 293 287 282 280 280 282 283 284 284 283 280 273 268 266 261 256 253 251 250 249 248 246 243 242 245 250 254 256 257 258 263 269 275 278 277 275 275 278 281 283 286 290 293 294 292 286 276 265 256 247 241 237 234 233 233 234 232 230 230 234 236 237 238 238 238 240 241 241 241
313 310 309 309 307 303 296 290 286 287 288 287 288 293 298 298 292 286 282 280 280 281 283 285 284 283 280 274 268 265 261 256 252 250 249 247 246 245 242 240 243 249 253 255 255 255 256 259 263 267 270 272 274 278 282 282 282 285 288 292 295 294 286 272 260 251 246 242 237 232 230 232 231 228 227 230 232 233 236 237 239 240 240 241 241
313 310 309 309 308 303 296 288 284 285 287 287 288 294 298 295 290 285 281 279 279 280 282 284 284 283 281 275 269 265 260 255 252 249 248 247 245 243 241 239 241 247 251 253 253 251 248 250 257 262 267 272 275 277 280 283 284 284 285 287 291 296 292 279 266 255 248 244 241 236 230 230 228 225 224 226 228 231 234 238 240 243 243 242 241
312 310 310 310 309 305 298 290 284 284 286 286 288 294 296 292 288 284 280 278 277 279 281 283 283 283 280 275 269 264 259 255 252 248 246 245 244 243 242 240 241 245 249 251 252 248 243 247 256 262 267 272 275 278 281 284 287 289 287 283 284 288 284 277 270 262 253 247 242 238 235 233 231 228 226 227 229 232 235 238 241 245 248 247 246
313 310 311 312 311 307 302 294 287 285 285 284 286 291 292 290 287 283 279 277 277 278 280 282 282 282 279 274 268 262 257 254 251 248 245 244 243 242 242 241 241 243 246 249 251 248 245 247 253 257 261 266 272 276 278 279 281 284 282 278 271 266 269 269 265 260 256 251 246 241 237 235 235 233 231 231 232 233 236 238 241 245 250 252 252
312 310 311 313 312 309 305 298 291 288 285 281 282 287 289 288 286 282 278 276 276 278 279 281 281 280 277 273 267 262 256 253 250 247 244 243 242 241 241 241 242 244 246 249 251 251 249 249 252 254 254 256 261 266 270 273 273 272 274 273 264 247 254 262 261 255 250 247 246 245 242 238 237 235 233 234 235 236 238 240 242 245 249 252 255
313 311 311 312 312 311 308 301 295 290 283 277 278 283 286 286 284 280 277 276 276 278 279 280 280 279 276 271 267 261 255 251 248 245 243 243 242 242 241 241 243 245 247 249 252 253 253 252 252 253 252 250 252 256 262 268 271 268 267 267 262 247 244 253 258 259 256 251 245 244 243 242 241 239 236 235 235 237 239 241 242 246 249 251 255
316 312 310 311 312 312 310 304 298 292 282 273 274 279 284 285 282 278 276 275 276 278 279 279 279 278 275 270 266 260 254 250 247 244 242 242 241 241 241 241 244 246 248 250 251 251 252 252 252 253 253 251 250 251 254 261 269 271 269 265 259 246 242 249 255 258 260 259 254 248 244 242 242 242 240 239 239 239 241 241 241 244 247 250 252
319 314 312 312 312 313 311 306 300 294 283 271 270 276 282 283 281 277 274 274 275 277 279 279 279 277 274 270 265 259 252 248 246 244 242 240 239 238 239 242 246 249 252 252 251 250 250 251 252 253 255 255 254 254 252 251 256 262 266 269 267 253 243 244 249 252 255 257 257 254 249 244 242 243 243 242 242 243 244 245 244 243 244 246 248
321 318 315 314 314 313 311 306 302 295 284 272 268 273 280 281 279 276 273 273 275 277 278 279 278 277 274 269 264 258 252 247 245 243 241 238 236 235 238 244 248 251 252 252 252 253 253 253 253 252 254 255 255 254 253 250 248 252 260 268 270 264 253 244 241 245 250 254 256 255 252 248 245 245 245 244 243 243 244 244 244 244 244 244 245
321 320 317 315 314 313 310 307 302 295 284 272 266 271 278 279 277 275 273 272 274 276 277 278 277 276 272 267 263 258 251 244 242 241 238 235 233 233 238 244 247 249 250 251 253 255 256 255 254 254 253 253 251 251 252 254 254 255 258 261 263 264 263 257 250 246 246 249 253 256 255 253 250 249 249 247 242 241 241 240 241 242 244 245 246
323 321 318 316 315 313 310 307 303 294 283 271 264 268 275 276 275 273 271 272 273 275 276 277 276 273 269 265 262 258 251 242 238 237 236 234 233 233 238 242 245 247 249 251 252 254 255 255 256 255 254 253 252 251 252 254 257 258 258 258 260 263 265 263 260 256 250 247 249 254 256 256 255 255 256 251 244 242 242 242 242 242 243 243 244
323 321 320 318 316 313 310 308 302 292 279 267 262 265 271 273 273 271 270 270 272 274 275 276 273 270 266 263 260 257 252 244 238 235 234 233 233 235 238 241 244 247 250 252 254 255 255 255 255 255 256 256 255 255 254 254 256 257 257 258 259 259 258 257 257 256 253 250 248 249 252 255 255 254 252 248 245 245 246 247 247 247 246 244 242
323 322 321 318 316 313 310 308 302 290 275 265 260 263 268 271 270 268 268 268 270 273 275 274 271 267 264 262 260 258 253 247 242 238 235 234 235 237 240 243 247 251 254 257 257 257 256 256 256 256 256 256 256 255 255 255 256 257 257 257 256 256 256 255 254 252 252 252 251 248 247 246 245 244 244 244 245 246 248 250 251 251 252 250 246
324 323 321 319 316 313 310 307 301 288 273 262 258 259 264 267 267 266 266 266 269 272 273 272 270 265 262 260 258 258 255 249 245 243 240 239 239 241 243 246 249 253 256 258 259 258 258 257 256 255 255 255 255 254 254 254 255 255 256 255 255 255 256 255 254 252 250 250 250 249 246 241 237 237 239 243 244 244 245 247 249 252 255 255 253
325 323 321 319 317 313 309 306 300 285 269 259 254 255 260 263 264 264 264 265 268 271 272 271 268 264 262 260 258 258 257 253 250 249 248 247 246 247 249 251 253 255 257 259 259 259 256 253 252 252 253 254 255 254 253 253 253 254 255 255 255 255 255 254 253 251 249 247 246 246 245 241 237 236 237 239 241 241 242 245 248 251 255 256 256
325 322 320 319 317 312 307 304 295 279 264 254 250 251 256 260 261 261 261 263 267 269 269 268 266 263 262 260 257 257 257 256 256 256 256 256 254 254 255 256 256 256 256 256 256 255 253 252 251 251 252 253 254 255 254 253 253 254 254 255 255 254 253 253 251 249 246 244 243 243 243 242 239 236 236 237 238 239 241 243 247 250 252 255 255
325 322 319 318 316 311 306 301 289 272 258 249 246 248 253 257 258 258 259 261 265 267 267 267 266 264 261 258 256 255 255 258 261 261 260 259 258 257 257 257 258 256 254 253 253 253 253 253 252 252 252 252 253 253 254 253 253 252 252 252 252 252 251 249 248 246 243 241 241 240 241 242 240 238 237 236 236 238 240 242 243 246 249 252 253
325 322 320 318 315 310 304 297 285 268 254 246 243 244 249 253 255 255 256 258 262 264 265 266 265 263 260 257 256 254 256 260 262 260 259 258 258 257 257 257 257 256 255 256 258 258 257 256 255 254 253 252 252 251 251 250 249 249 249 248 248 248 248 247 245 242 240 239 239 238 239 241 242 241 240 237 235 235 237 238 239 241 245 248 249
325 323 321 319 315 309 301 292 280 264 250 243 239 239 245 249 251 252 253 255 258 262 263 263 262 261 258 256 254 254 256 258 259 259 259 259 258 258 257 256 256 257 259 262 263 263 263 261 259 257 255 252 249 247 245 244 243 244 244 243 242 243 244 244 242 240 238 237 237 237 237 238 240 243 243 241 238 235 234 235 237 239 243 245 247
326 324 322 320 316 307 297 287 273 256 245 239 235 235 240 245 247 249 249 250 254 258 259 259 259 257 256 254 252 251 253 255 257 259 259 260 260 261 259 255 256 260 264 266 265 262 261 260 257 256 253 250 246 243 241 239 239 240 239 238 236 236 237 238 238 237 237 236 236 237 238 238 238 241 243 245 244 241 238 236 236 238 241 244 246
328 326 323 321 316 305 293 280 264 252 244 238 234 234 237 242 244 245 245 247 250 252 255 256 255 253 253 252 250 249 250 252 255 257 259 259 260 260 255 252 256 261 263 264 262 258 255 253 250 249 248 247 245 244 243 240 238 238 239 236 234 231 231 232 233 233 234 236 236 237 238 239 240 241 243 245 247 246 243 240 238 238 240 243 245
330 328 325 321 315 303 289 271 254 247 241 235 231 231 234 240 243 244 244 246 247 248 251 252 252 252 252 251 250 249 249 250 252 254 256 258 258 255 250 250 255 260 260 259 257 254 252 249 246 243 241 242 243 245 245 244 242 242 244 244 240 235 231 230 230 230 231 232 233 235 237 239 240 242 244 245 246 246 245 243 241 240 241 242 243
333 330 327 322 315 302 285 263 244 239 236 232 229 228 232 240 243 243 244 245 246 248 249 249 250 252 251 250 251 249 248 247 249 251 253 255 255 251 248 249 252 256 257 256 253 250 248 247 246 245 242 242 243 245 247 247 246 247 249 250 248 245 241 238 235 234 232 232 231 233 235 237 239 241 243 244 245 244 244 244 242 241 240 240 241
335 332 328 324 315 300 280 256 240 235 233 232 228 226 231 238 240 241 243 244 245 248 247 247 248 249 249 251 252 250 247 246 247 249 251 252 251 248 246 246 248 250 252 253 250 246 245 244 246 247 248 247 246 247 248 249 249 250 251 252 251 249 247 245 244 242 240 238 236 234 235 236 238 240 241 243 244 243 243 242 241 239 238 237 236
335 332 329 326 316 298 273 249 240 236 233 231 227 224 228 235 238 240 241 242 244 245 245 245 246 246 247 249 250 249 247 244 244 247 248 248 248 248 245 245 245 245 247 248 247 244 243 243 246 249 250 250 250 249 249 250 251 251 252 252 252 251 250 249 248 248 246 245 243 240 239 238 238 239 240 242 243 243 243 241 239 236 235 235 234
335 331 329 326 315 295 267 244 240 240 237 233 226 223 227 234 237 240 242 243 244 245 244 244 244 244 245 247 247 247 246 244 243 245 246 246 246 247 245 245 245 245 245 246 247 246 246 247 250 253 254 255 254 252 252 252 252 252 253 252 252 253 252 252 251 249 249 248 247 245 244 241 239 239 239 240 241 242 241 240 237 233 232 233 233
334 330 328 324 313 293 262 239 236 238 236 230 225 224 227 232 235 239 243 245 246 245 243 242 242 242 243 244 244 244 244 244 243 243 242 243 244 244 245 246 246 247 249 250 249 250 251 251 252 253 253 253 252 251 251 251 252 253 254 254 254 254 253 253 252 251 249 249 248 247 245 243 241 240 240 239 240 240 239 239 238 234 232 231 231
334 330 326 321 308 285 258 240 235 233 229 225 223 225 228 232 236 238 241 244 246 246 245 243 241 241 242 242 243 243 242 243 243 242 241 241 241 242 244 246 247 249 251 251 250 251 251 250 250 249 248 249 249 248 248 248 249 251 252 253 255 255 253 252 251 250 249 248 248 247 246 243 242 241 240 240 239 239 238 238 238 237 235 233 232
333 329 324 316 298 270 249 241 239 236 230 225 223 224 229 234 238 239 240 243 246 248 249 247 244 243 243 243 243 243 242 242 243 242 242 241 241 242 243 244 246 248 249 249 249 248 246 245 245 245 245 247 248 249 249 248 248 249 251 252 254 255 254 253 251 249 247 247 246 246 245 244 243 243 242 241 239 239 238 238 238 238 238 237 236
332 328 322 310 287 257 240 239 242 241 237 232 227 227 230 235 238 240 242 244 245 248 250 250 248 247 246 245 245 244 242 240 241 242 242 242 241 241 241 241 243 244 245 245 246 244 242 242 241 241 244 246 248 250 251 251 250 250 250 250 252 253 253 253 252 250 249 248 246 246 245 244 244 245 245 245 243 241 239 239 238 239 239 239 239
332 327 319 304 278 251 238 238 240 240 238 235 231 231 234 236 237 238 239 241 244 246 248 249 249 248 247 247 247 246 244 242 241 240 241 240 240 240 240 240 240 241 242 243 244 243 243 243 241 241 243 245 247 249 251 251 252 251 251 251 252 252 252 253 252 252 252 250 249 248 247 245 246 247 247 248 248 246 244 242 241 240 240 240 239
332 326 315 297 272 251 244 242 239 236 233 229 228 229 233 235 236 237 237 237 240 243 245 246 248 248 247 246 246 246 246 245 243 242 242 241 241 240 240 240 239 239 240 241 243 244 245 245 245 246 246 246 247 249 249 250 250 250 250 250 251 251 251 252 252 253 253 252 251 250 248 247 248 248 249 250 251 250 249 247 244 242 241 241 240
333 326 314 294 270 254 250 248 244 238 232 226 224 226 229 233 236 238 237 237 239 240 242 244 245 246 247 247 246 245 245 245 244 244 244 244 244 244 243 243 243 243 243 244 244 245 246 247 248 249 250 250 250 251 250 251 251 251 250 250 249 248 249 250 250 251 253 254 254 253 252 250 249 249 249 250 250 250 251 250 248 246 245 243 242
336 330 317 297 277 264 258 256 253 248 242 237 233 230 231 234 237 238 238 238 238 239 240 242 243 245 247 247 247 247 246 245 245 245 245 245 246 246 247 248 249 249 250 250 250 250 251 251 251 252 252 253 253 253 252 253 253 253 254 253 252 251 251 250 249 250 250 251 253 254 254 253 252 251 250 250 249 249 250 250 250 250 248 246 245
341 337 325 306 287 277 273 269 265 260 256 252 248 244 242 242 241 240 240 239 238 238 238 239 241 243 245 246 247 248 248 247 247 246 245 245 246 246 247 249 250 251 252 252 253 254 255 255 255 255 255 255 255 255 255 255 254 254 255 255 254 255 254 253 253 252 251 250 250 250 251 251 252 252 252 252 251 250 249 249 249 250 249 249 248
348 346 336 318 298 289 286 283 278 273 267 263 260 257 255 253 251 249 248 245 243 242 241 239 239 241 242 243 245 247 247 248 248 247 247 247 246 245 246 247 247 248 250 251 252 252 253 254 255 256 256 256 256 256 256 256 255 255 255 254 254 254 254 254 254 254 253 253 252 251 250 250 250 250 251 252 252 252 252 250 249 248 248 248 248
356 353 345 331 315 303 298 294 290 284 278 273 269 266 264 262 261 260 258 256 254 252 250 247 246 244 243 243 244 245 246 247 248 248 248 248 248 247 247 247 246 247 248 249 250 251 251 251 253 254 255 256 256 256 256 256 256 256 256 256 256 255 254 254 254 253 253 253 253 253 252 251 251 250 250 251 251 252 253 253 252 251 250 249 248
3 358 351 341 328 318 310 305 300 294 289 284 280 276 274 272 271 269 267 265 263 260 258 255 253 250 248 247 246 246 246 247 247 247 247 247 247 247 247 247 247 248 248 248 249 251 251 252 253 254 255 256 257 258 259 259 258 258 258 258 258 258 258 257 256 255 254 254 253 253 254 254 253 253 252 251 251 250 250 251 253 254 253 252 251